Flag for China Weather past 2 weeks in Taiyuan, Shanxi, China

Now
57 °F

Scattered clouds.


Feels Like: 57 °F
Forecast: 47 / 71 °F
Wind: 1 mph from Northeast

Location: Taiyuan Airport

Current Time: Sep 17, 2014 at 12:34:18 PM

Latest Report: Sep 17, 2014 at 12:00 PM


Visibility: 4 mi

Pressure: 30.21 "Hg

Humidity: 77%

Dew point: 50 °F

Location of TaiyuanLocation

Historic Weather in Taiyuan — Graph

°F

Taiyuan temperature yesterday

Maximum temperature yesterday: 57 °F (at 8:30 AM)
Minimum temperature yesterday: 48 °F (at 4:00 PM)
Average temperature yesterday: 53 °F

Past Weeks' High & Low Weather Summary

 TemperatureHumidityPressure
High86 °F (Sep 5, 2:00 PM)94% (Sep 7, 4:30 AM)30.24 "Hg (Sep 7, 4:30 AM)
Low48 °F (Sep 16, 4:00 PM)13% (Sep 4, 4:30 PM)29.80 "Hg (Sep 4, 3:00 PM)
Average65 °F69%29.98 "Hg
* Reported Sep 2 11:00 AM — Sep 17 11:30 AM, Taiyuan, Weather by CustomWeather, © 2014

Note: Actual official high and low records may vary slightly from our data, if they occured in-between our weather recording intervals... More about our weather records

Advertising

Taiyuan weather history for previous 24 hours

 ConditionsComfort  
Time TempWeatherWind HumidityBarometerVisibility
11:30 AM
Sep 17
55 °FScattered clouds.1 mph82%30.21 "Hg4 mi
11:00 AM54 °FScattered clouds.1 mph88%30.21 "Hg4 mi
10:30 AM54 °FFog.1 mph88%30.21 "Hg3 mi
10:00 AM52 °FFog.1 mph88%30.24 "Hg3 mi
9:30 AM52 °FLight rain. Fog.1 mph88%30.21 "Hg3 mi
9:00 AM52 °FLight rain. Fog.1 mph88%30.21 "Hg2 mi
8:30 AM50 °FLight rain. Fog.1 mph94%30.21 "Hg1 mi
8:00 AM50 °FLight rain. Fog.1 mph94%30.18 "Hg1 mi
7:30 AM50 °FLight rain. Fog.1 mph94%30.18 "Hg1 mi
7:00 AM50 °FLight rain. Fog.1 mph88%30.18 "Hg1 mi
6:30 AM48 °FLight rain. Fog.1 mph94%30.18 "Hg1 mi
6:00 AM48 °FLight rain. Fog.1 mph94%30.18 "Hg1 mi
5:30 AM50 °FLight rain. Fog.1 mph88%30.18 "Hg2 mi
5:00 AM50 °FLight rain. Fog.3 mph88%30.18 "Hg2 mi
4:30 AM50 °FLight rain. Fog.1 mph88%30.15 "Hg3 mi
4:00 AM50 °FLight rain. Fog.1 mph88%30.15 "Hg3 mi
3:30 AM50 °FLight rain. Fog.1 mph88%30.15 "Hg3 mi
3:00 AM50 °FPassing clouds.1 mph88%30.15 "Hg4 mi
2:30 AM50 °FPassing clouds.1 mph88%30.15 "Hg4 mi
2:00 AM50 °FPassing clouds.1 mph94%30.15 "Hg4 mi
1:30 AM50 °FLight rain. Passing clouds.1 mph94%30.15 "HgN/A
1:00 AM50 °FLight rain. Passing clouds.1 mph94%30.18 "HgN/A
12:30 AM52 °FLight rain. Passing clouds.1 mph88%30.18 "HgN/A
12:00 AM50 °FLight rain. Passing clouds.No wind94%30.18 "HgN/A
11:30 PM
Sep 16
50 °FLight rain. Passing clouds.1 mph88%30.18 "HgN/A
11:00 PM50 °FLight rain. Passing clouds.1 mph88%30.15 "HgN/A
10:30 PM50 °FLight rain. Passing clouds.3 mph88%30.18 "HgN/A
10:00 PM50 °FLight rain. Passing clouds.3 mph88%30.15 "HgN/A
9:30 PM50 °FLight rain. Passing clouds.1 mph88%30.15 "HgN/A
9:00 PM50 °FLight rain. Passing clouds.3 mph88%30.15 "HgN/A
8:30 PM50 °FLight rain. Passing clouds.3 mph88%30.15 "HgN/A
8:00 PM50 °FLight rain. Passing clouds.3 mph88%30.15 "HgN/A
7:30 PM50 °FLight rain. Passing clouds.3 mph88%30.12 "HgN/A
7:00 PM50 °FLight rain. Passing clouds.3 mph82%30.15 "HgN/A
6:30 PM50 °FLight rain. Partly sunny.6 mph88%30.12 "HgN/A
6:00 PM50 °FLight rain. Partly sunny.6 mph82%30.12 "HgN/A
5:30 PM48 °FLight rain. Partly sunny.8 mph82%30.15 "HgN/A
5:00 PM48 °FLight rain. Partly sunny.8 mph82%30.12 "HgN/A
4:30 PM48 °FRain. Partly sunny.10 mph82%30.15 "HgN/A
4:00 PM48 °FRain. Partly sunny.10 mph82%30.15 "HgN/A
3:30 PM50 °FRain. Partly sunny.8 mph82%30.12 "HgN/A
3:00 PM50 °FRain. Partly sunny.6 mph88%30.12 "HgN/A
2:30 PM52 °FRain. Partly sunny.3 mph88%30.12 "HgN/A
2:00 PM52 °FLight rain. Partly sunny.6 mph88%30.12 "HgN/A
1:30 PM52 °FLight rain. Partly sunny.6 mph88%30.12 "HgN/A
1:00 PM52 °FLight rain. Partly sunny.3 mph77%30.12 "HgN/A
12:30 PM54 °FLight rain. Partly sunny.8 mph72%30.12 "HgN/A
12:00 PM54 °FLight rain. Partly sunny.3 mph82%30.12 "Hg5 mi
Weather by CustomWeather, © 2014

See weather overviewHow to use our weather pages